EW1549 Weather Reports


time (UTC)temp
F
wind
direction
speed
knots
gust
knots
rain 1hr
in
rain 24hr
in
rain mn
in
humidity
%
barometer
mb
20260906223030 0 231 4.3 6.1 0.00 0.00 0.00 1021.0
20260906221526 0 225 2.6 6.1 0.00 0.00 0.00 1020.9
20260906220021 0 219 3.5 7.0 0.00 0.00 0.00 1020.7
20260906214521 0 221 2.6 5.2 0.00 0.00 0.00 1020.6
20260906213013 0 322 0.0 0.0 0.00 0.00 0.00 1020.6
20260906211508 0 322 0.0 1.7 0.00 0.00 0.00 1020.5
20260906210004 0 316 0.0 3.5 0.00 0.00 0.00 1020.5
20260906204610 0 310 0.0 3.5 0.00 0.00 0.00 1020.6
20260906203056 0 291 0.0 7.0 0.00 0.00 0.00 1020.4
20260906201558 0 297 3.5 7.0 0.00 0.00 0.00 1020.2
20260906200047 0 250 5.2 7.8 0.00 0.00 0.00 1020.1
20260906194543 0 260 3.5 6.1 0.00 0.00 0.00 1019.9
20260906193038 0 336 0.0 4.3 0.00 0.00 0.00 1019.7
20260906191533 0 71 4.3 7.8 0.00 0.00 0.00 1019.6
20260906190029 0 31 7.0 10.4 0.00 0.00 0.00 1019.4
20260906184525 0 356 3.5 7.8 0.00 0.00 0.00 1019.3
20260906183020 0 267 0.0 7.0 0.00 0.00 0.00 1019.2
20260906181516 0 268 0.0 5.2 0.00 0.00 0.00 1019.1
20260906180011 0 357 1.7 5.2 0.00 0.00 0.00 1019.3
20260906174510 0 41 0.9 7.8 0.00 0.00 0.00 1019.2
20260906173004 0 41 3.5 9.6 0.00 0.00 0.00 1019.3
20260906171602 0 356 4.3 13.9 0.00 0.00 0.00 1019.3
20260906170105 0 25 7.0 13.0 0.00 0.00 0.00 1019.2
20260906164527 0 41 7.0 17.4 0.00 0.00 0.00 1019.1
20260906163022 0 54 6.1 14.8 0.00 0.00 0.00 1019.2
20260906161518 0 17 4.3 15.6 0.00 0.00 0.00 1019.2
20260906160014 0 19 5.2 11.3 0.00 0.00 0.00 1019.2
20260906154518 0 12 8.7 13.0 0.00 0.00 0.00 1019.3
20260906153014 0 27 10.4 14.8 0.00 0.00 0.00 1019.3
20260906151612 0 127 4.3 11.3 0.00 0.00 0.00 1019.4
20260906150103 0 22 7.0 13.9 0.00 0.00 0.00 1019.3
20260906144553 0 71 5.2 13.9 0.00 0.00 0.00 1019.4
20260906143105 0 46 6.1 12.2 0.00 0.00 0.00 1019.4
20260906141544 0 32 10.4 14.8 0.00 0.00 0.00 1019.5
20260906140047 0 36 8.7 12.2 0.00 0.00 0.00 1019.7
20260906134545 0 63 7.8 14.8 0.00 0.00 0.00 1019.8
20260906133030 0 54 4.3 13.0 0.00 0.00 0.00 1019.9
20260906131526 0 41 5.2 11.3 0.00 0.00 0.00 1019.7
20260906130022 0 30 5.2 12.2 0.00 0.00 0.00 1019.6
20260906124530 0 22 4.3 11.3 0.00 0.00 0.00 1019.8
20260906123016 0 343 1.7 12.2 0.00 0.00 0.00 1019.9
20260906121509 0 11 3.5 11.3 0.00 0.00 0.00 1019.9
20260906120005 0 31 7.0 12.2 0.00 0.00 0.00 1019.9
20260906114610 0 12 7.0 10.4 0.00 0.00 0.00 1020.0
20260906113055 0 4 3.5 11.3 0.00 0.00 0.00 1020.2
20260906111551 0 41 8.7 11.3 0.00 0.00 0.00 1020.2
20260906110047 0 41 5.2 11.3 0.00 0.00 0.00 1020.5
20260906104542 0 46 0.0 5.2 0.00 0.00 0.00 1020.4
20260906103037 0 301 0.9 5.2 0.00 0.00 0.00 1020.2
20260906101533 0 329 4.3 7.0 0.00 0.00 0.00 1020.0
20260906100028 0 242 2.6 5.2 0.00 0.00 0.00 1019.9
20260906094524 0 191 0.0 0.9 0.00 0.00 0.00 1019.8
20260906093022 0 191 0.0 2.6 0.00 0.00 0.00 1019.7
20260906091516 0 191 0.0 0.0 0.00 0.00 0.00 1019.6
20260906090010 0 191 0.0 4.3 0.00 0.00 0.00 1019.7
20260906084506 0 177 0.0 0.0 0.00 0.00 0.00 1019.7
20260906083001 0 177 0.9 5.2 0.00 0.00 0.00 1019.7
20260906081558 0 245 2.6 8.7 0.00 0.00 0.00 1019.9
20260906080053 0 222 6.1 10.4 0.00 0.00 0.00 1019.6
20260906074551 0 239 2.6 5.2 0.00 0.00 0.00 1019.6
20260906073044 0 218 4.3 7.0 0.00 0.00 0.00 1019.3
20260906071539 0 231 0.9 6.1 0.00 0.00 0.00 1019.0
20260906070035 0 235 2.6 6.1 0.00 0.00 0.00 1018.8
20260906064530 0 221 2.6 6.1 0.00 0.00 0.00 1018.8
20260906063028 0 229 2.6 4.3 0.00 0.00 0.00 1018.7
20260906061524 0 284 0.0 0.0 0.00 0.00 0.00 1018.6
20260906060017 0 284 0.0 0.0 0.00 0.00 0.00 1018.6
20260906054513 0 282 0.0 3.5 0.00 0.00 0.00 1018.7
20260906053008 0 229 3.5 5.2 0.00 0.00 0.00 1018.8
20260906051505 0 235 2.6 8.7 0.00 0.00 0.00 1018.9
20260906050002 0 231 4.3 8.7 0.00 0.00 0.00 1018.7
20260906044557 0 248 3.5 7.0 0.00 0.00 0.00 1018.4
20260906043059 0 228 2.6 5.2 0.00 0.00 0.00 1018.4
20260906041552 0 117 0.0 0.0 0.00 0.00 0.00 1018.2
20260906040043 0 117 0.0 0.0 0.00 0.00 0.00 1018.2
20260906034537 0 162 0.0 3.5 0.00 0.00 0.00 1018.1
20260906033036 0 245 0.0 0.0 0.00 0.00 0.00 1018.3
20260906031528 0 245 0.0 0.0 0.00 0.00 0.00 1018.5
20260906030024 0 245 0.0 0.0 0.00 0.00 0.00 1018.8
20260906024520 0 246 1.7 5.2 0.00 0.00 0.00 1018.8
20260906023016 0 219 5.2 7.8 0.00 0.00 0.00 1018.6
20260906021511 0 254 3.5 5.2 0.00 0.00 0.00 1018.4
20260906020010 0 243 3.5 5.2 0.00 0.00 0.00 1018.4
20260906014504 0 213 0.0 0.0 0.00 0.00 0.00 1018.5
20260906013109 0 213 0.0 3.5 0.00 0.00 0.00 1018.5
20260906011601 0 213 0.0 3.5 0.00 0.00 0.00 1018.6
20260906010046 0 213 0.0 0.0 0.00 0.00 0.00 1018.7
20260906004542 0 213 1.7 3.5 0.00 0.00 0.00 1018.8
20260906003030 0 213 0.0 3.5 0.00 0.00 0.00 1018.9
20260906001526 0 213 2.6 5.2 0.00 0.00 0.00 1019.1
20260906000036 0 216 1.7 7.0 0.00 0.00 0.00 1019.2
20260905234517 0 223 0.0 0.0 0.00 0.00 0.00 1019.4
20260905233012 0 223 1.7 6.1 0.00 0.00 0.00 1019.4
20260905231508 0 212 4.3 8.7 0.00 0.00 0.00 1019.6
20260905230003 0 203 6.1 10.4 0.00 0.00 0.00 1019.6
20260905224559 0 230 5.2 8.7 0.00 0.00 0.00 1019.6